スキッフ彗星

C/2001 S1 ( Skiff )

English version
Home page
Updated on May 10, 2003

---------------------------------------------------------------------

・ プロフィール

発見日 2001年 9月26日
発見光度 19.7等
発見者 B. A. Skiff (LONEOS)

・ 軌道要素

T 2001 June 2.5503 TT                                   MPCM
q   3.750046             (2000.0)            P               Q
z  +0.018168       Peri.  285.1926      +0.5908859      +0.7379454
                   Node   330.1124      +0.7118983      -0.6670582
e   0.931869       Incl.  139.1357      -0.3795455      -0.1023227
From 33 observations 2001 Sept. 26-Nov. 15.

・ 星図

・ 光度変化

        m1 = 9.5 + 5 logΔ + 10.0 log r

---------------------------------------------------------------------

軌道要素はMPCのEphemerides and Orbital Elementsに掲載されたものです。
星図は StellaNavigator Ver.2.0 for Windows (アストロアーツ 編著 / アスキー出版局刊) で作成したものです。
光度グラフはComet for Windowsで作成したものです。

---------------------------------------------------------------------

Copyright(C) Seiichi Yoshida (comet@aerith.net). All rights reserved.